sat.trackr.live / text

‹ back to catalog

ONEWEB-0272

NORAD 48990 · 2021-060Z

PAYLOAD ACTIVE UNKNOWN

§ Identity

Operator
Country
UK
Launch date
2021-07-01
Launch site
VOSTO
Launch vehicle
Mass (kg)
RCS (m²)

Purposes: comms

External: N2YO · Heavens-Above · Gunter

§ Orbital elements

Epoch: 2026-09-09T22:18:37.977408Z

Period
109.37 min
Inclination
87.9132°
Eccentricity
0.0002319
Mean motion
13.16592501 rev/d
Perigee alt
1,196.0 km
Apogee alt
1,199.5 km
Semi-major
7,575.9 km
B*
-1.1745e-4
RAAN
211.9517°
Arg perigee
84.1462°
Mean anomaly
275.9933°
Rev number
25,076

§ Raw data

ONEWEB-02721 48990U 21060Z   26252.92960622 -.00000032  00000+0 -11745-3 0  99992 48990  87.9132 211.9517 0002319  84.1462 275.9933 13.16592501250769

JSON: /api/v1/satellites/48990 · /tle

For live sub-satellite position, see the globe view (requires WebGL).

§ Visibility from observer

Set your observer location to see the next 7 days of passes ≥ 10°. The values pass through the URL so the page stays shareable.

No JS? Fill the form by hand. The geolocation button needs JavaScript.